AVA3950 SKBO-SKRG

Flight info

Callsign AVA3950
Flight time N/A
Altitude 24000
Route SOA1A VASIL W36 NIRSO NIRSO3C
Aircraft A320/M-SDE3FGHIRWY/LB1

Departure

Time N/A
Airport El Dorado International Airport (SKBO)

Arrival

Time 2026-04-25 10:26
Airport Jose Maria Córdova International Airport (SKRG)
Time Latitude Longitude Altitude Speed Heading
2026-04-25 10:15 5.39539 -75.39928 18981 ft 440 kts 348°
2026-04-25 10:16 5.42579 -75.40280 18295 ft 438 kts 356°
2026-04-25 10:16 5.45627 -75.40449 17274 ft 441 kts 356°
2026-04-25 10:16 5.48669 -75.40613 16689 ft 434 kts 356°
2026-04-25 10:16 5.51667 -75.40775 16101 ft 428 kts 356°
2026-04-25 10:17 5.54618 -75.40939 15531 ft 423 kts 355°
2026-04-25 10:17 5.57540 -75.41101 15026 ft 418 kts 355°
2026-04-25 10:17 5.60392 -75.41258 14878 ft 402 kts 355°
2026-04-25 10:17 5.63133 -75.41409 14760 ft 387 kts 355°
2026-04-25 10:18 5.65778 -75.41557 14647 ft 374 kts 355°
2026-04-25 10:18 5.68297 -75.41695 14531 ft 361 kts 355°
2026-04-25 10:18 5.70749 -75.41827 14409 ft 342 kts 355°
2026-04-25 10:18 5.73047 -75.41952 14294 ft 320 kts 355°
2026-04-25 10:19 5.75205 -75.42072 14162 ft 300 kts 355°
2026-04-25 10:19 5.77228 -75.42185 13986 ft 284 kts 355°
2026-04-25 10:19 5.79184 -75.42224 13668 ft 279 kts 359°
2026-04-25 10:19 5.81102 -75.42181 13210 ft 275 kts
2026-04-25 10:20 5.83008 -75.42106 12667 ft 273 kts
2026-04-25 10:20 5.84895 -75.42024 12155 ft 270 kts
2026-04-25 10:20 5.86754 -75.41948 11823 ft 261 kts
2026-04-25 10:20 5.88514 -75.41880 11700 ft 246 kts
2026-04-25 10:21 5.90186 -75.41831 11598 ft 242 kts 359°
2026-04-25 10:21 5.91887 -75.41858 11270 ft 239 kts 357°
2026-04-25 10:21 5.93510 -75.41967 11003 ft 236 kts 351°
2026-04-25 10:21 5.95143 -75.42138 10745 ft 234 kts 356°
2026-04-25 10:22 5.96755 -75.42187 10505 ft 229 kts 359°
2026-04-25 10:22 5.98320 -75.42197 10211 ft 220 kts 359°
2026-04-25 10:22 5.99810 -75.42204 9931 ft 207 kts 359°
2026-04-25 10:22 6.01183 -75.42212 9690 ft 188 kts 359°
2026-04-25 10:23 6.02448 -75.42221 9450 ft 176 kts 359°
2026-04-25 10:23 6.03650 -75.42229 9233 ft 171 kts 359°
2026-04-25 10:23 6.04834 -75.42236 9030 ft 169 kts 359°
2026-04-25 10:23 6.05986 -75.42244 8814 ft 167 kts 359°
2026-04-25 10:24 6.07149 -75.42252 8608 ft 166 kts 359°
2026-04-25 10:24 6.08303 -75.42259 8397 ft 166 kts 359°
2026-04-25 10:24 6.09456 -75.42261 8199 ft 165 kts 360°
2026-04-25 10:24 6.10606 -75.42264 7961 ft 164 kts 359°
2026-04-25 10:25 6.11747 -75.42270 7754 ft 164 kts 360°
2026-04-25 10:25 6.12882 -75.42267 7467 ft 163 kts 358°
2026-04-25 10:25 6.14016 -75.42290 7217 ft 162 kts 359°
2026-04-25 10:25 6.15127 -75.42301 6989 ft 162 kts
2026-04-25 10:26 6.16114 -75.42308 6979 ft 116 kts 360°
2026-04-25 10:26 6.16745 -75.42311 6993 ft 57 kts 359°
2026-04-25 10:26 6.16964 -75.42340 7007 ft 18 kts 340°
2026-04-25 10:26 6.17071 -75.42390 7016 ft 16 kts 330°
2026-04-25 10:27 6.17164 -75.42447 7015 ft 15 kts 326°
2026-04-25 10:27 6.17185 -75.42545 7017 ft 16 kts 270°
2026-04-25 10:27 6.17167 -75.42613 7019 ft 5 kts 214°
2026-04-25 10:27 6.17140 -75.42617 7020 ft 6 kts 181°
2026-04-25 10:28 6.17089 -75.42627 7020 ft 2 kts 249°
2026-04-25 10:28 6.17089 -75.42630 7019 ft 1 kts 258°
2026-04-25 10:28 6.17093 -75.42652 7018 ft 3 kts 287°
2026-04-25 10:28 6.17097 -75.42670 7020 ft 3 kts 281°
2026-04-25 10:29 6.17099 -75.42682 7020 ft 1 kts 282°
2026-04-25 10:29 6.17101 -75.42690 7019 ft 0 kts 282°